Wetbulb
63.33 63.57 64.65 64.93 66.59 65.99 66.80 68.25 67.94 68.42 67.62 68.67 71.56 70.61 68.98 68.31 68.69 66.78 65.43 65.14 66.12 67.54 68.78 69.95 71.78 72.40 71.18 72.48 72.50 72.38 72.18 70.75 70.29
62.33 63.89 65.15 63.76 64.94 66.47 66.78 66.69 70.59 70.41 69.57 70.79 72.43 71.44 69.66 68.94 70.18 67.65 65.35 65.88 68.62 69.80 69.97 70.70 70.48 70.80 71.26 71.52 71.60 71.06 70.89 70.52 67.68
61.72 64.21 62.78 62.04 63.01 63.62 64.92 67.91 72.21 72.06 71.89 71.58 71.22 70.52 70.70 70.09 68.31 66.72 66.56 67.83 70.33 69.70 68.80 69.48 69.70 69.91 70.11 69.97 70.13 69.70 69.52 67.99 67.50
61.07 62.12 63.64 63.02 62.42 67.31 70.94 71.51 71.01 70.25 69.87 69.21 68.49 68.74 68.85 68.94 69.28 69.87 70.11 69.80 69.28 68.83 68.87 68.13 68.33 68.13 67.59 67.54 67.88 68.24 67.72 67.09 66.28
61.18 62.83 63.61 62.71 64.41 68.96 69.53 69.32 69.53 68.58 68.60 68.17 67.57 67.05 66.69 66.38 66.63 66.98 66.92 67.00 67.07 68.35 68.35 67.99 67.25 67.21 67.07 67.00 67.16 66.65 66.81 66.56 68.06
61.78 62.43 66.20 67.66 67.70 67.68 68.74 68.51 68.22 67.81 66.51 65.59 66.13 67.21 67.28 67.43 67.14 66.71 66.37 67.00 67.68 66.49 66.06 65.90 66.89 66.76 65.50 64.38 64.61 65.19 65.26 65.06 65.75
62.78 65.49 66.84 66.54 66.47 66.97 67.41 67.30 67.18 66.27 65.44 65.44 66.51 67.14 66.94 66.17 65.99 65.72 65.59 65.57 65.70 65.30 65.48 65.47 64.82 63.95 63.09 62.01 61.49 61.83 61.62 61.57 60.74
64.08 64.95 65.97 66.26 65.76 65.64 66.16 66.68 66.84 65.59 65.84 66.04 66.96 66.49 65.61 64.91 64.60 63.98 63.54 62.63 61.91 61.44 61.58 62.84 64.17 63.18 62.70 62.02 60.86 59.13 58.78 58.61 58.50
64.19 64.54 66.11 66.47 65.70 65.55 66.06 66.53 65.93 65.77 66.53 66.01 66.71 65.03 63.93 63.82 63.34 62.12 60.82 60.15 59.85 59.12 59.14 59.25 60.47 61.15 60.05 59.59 58.83 60.41 58.92 56.65 54.80
64.29 65.02 66.22 66.07 65.51 65.49 65.57 65.66 65.62 65.97 66.44 66.26 65.30 64.56 64.09 63.36 62.72 61.36 60.11 58.86 58.25 57.65 57.46 57.30 57.32 56.57 57.43 57.43 57.48 58.95 58.72 55.97 52.95
65.18 66.23 66.42 66.29 65.29 65.33 66.20 65.96 65.84 66.62 66.29 65.43 64.96 64.38 64.19 63.60 62.01 60.16 58.70 57.56 56.45 56.02 55.72 55.08 54.52 54.97 54.50 55.57 57.34 58.24 57.78 54.95 53.02
66.66 67.17 67.41 67.23 66.58 66.36 67.12 66.51 66.49 66.48 65.40 64.91 64.43 63.51 62.86 62.23 60.81 58.74 57.47 56.10 55.16 54.51 53.75 54.26 53.49 54.36 55.05 54.68 54.98 55.69 57.34 53.96 51.80
67.46 68.04 68.01 67.41 66.86 67.24 67.23 66.37 66.71 65.43 64.16 63.50 62.15 60.43 59.57 59.16 58.57 57.35 55.82 54.96 54.14 53.65 53.71 53.69 53.04 53.64 54.00 54.45 53.27 54.07 56.22 54.29 51.40
68.43 68.16 67.99 68.07 67.28 66.89 67.16 66.41 65.88 64.06 62.75 61.73 60.48 58.78 58.07 57.71 57.43 56.02 54.39 52.87 53.24 53.10 53.10 53.05 52.91 51.98 49.79 50.05 50.46 52.29 53.94 51.45 49.41
67.04 66.99 67.04 67.33 66.65 66.08 65.85 65.88 64.52 61.94 61.09 59.42 58.12 57.32 55.72 54.91 55.27 56.49 53.82 52.97 52.79 52.83 52.63 52.75 52.57 49.70 49.28 48.72 48.99 52.71 52.20 51.34 50.93
65.70 66.33 66.96 67.27 66.26 63.66 62.96 63.09 63.34 60.75 58.17 57.83 57.03 55.83 54.51 54.23 53.98 54.21 53.78 53.63 53.30 52.20 52.22 51.57 51.64 50.88 48.96 47.64 47.64 48.51 49.19 49.72 50.65
63.59 64.48 64.37 63.88 62.79 61.59 60.09 60.55 60.61 59.25 57.91 57.26 55.89 54.45 53.81 53.34 53.26 51.73 51.20 51.15 51.89 52.00 51.13 50.41 49.69 49.16 47.52 46.60 46.65 47.21 48.01 48.55 48.44
61.86 62.04 62.20 62.54 60.88 59.38 57.39 57.56 56.64 56.07 55.98 55.11 53.09 51.83 51.03 50.89 49.20 49.01 48.92 48.45 47.72 48.96 50.48 49.82 49.39 48.13 47.70 46.41 46.29 47.16 46.95 46.69 47.96
60.11 60.12 60.52 59.33 58.37 56.33 54.49 54.08 52.97 52.58 53.30 52.58 50.84 49.74 49.84 49.49 48.41 48.99 48.27 47.96 47.47 46.97 45.94 45.84 44.96 44.43 46.77 47.94 46.26 44.92 44.09 42.87 42.78
57.91 58.97 58.91 57.64 56.55 54.37 52.51 51.47 51.16 51.56 51.68 51.39 50.49 50.07 50.61 50.27 50.24 50.02 48.91 47.06 47.42 47.65 48.08 45.78 43.99 43.52 43.78 43.81 44.81 43.10 42.09 41.64 41.78
MSLP
1005.69 1005.66 1006.00 1006.56 1006.36 1006.78 1007.03 1007.43 1007.50 1008.11 1008.67 1009.07 1009.03 1009.99 1012.21 1013.87 1013.89 1013.19 1013.32 1012.73 1012.33 1012.50 1012.75 1012.73 1012.69 1012.48 1012.18 1012.14 1012.10 1012.32 1012.55 1012.62 1013.06
1005.71 1006.04 1006.71 1006.84 1006.68 1006.95 1007.32 1007.69 1007.85 1008.21 1008.83 1008.73 1009.17 1010.52 1011.91 1012.34 1011.86 1012.20 1012.58 1012.52 1012.08 1012.32 1012.57 1012.76 1012.48 1012.28 1012.06 1012.13 1012.27 1012.58 1012.85 1013.01 1013.41
1006.09 1006.32 1007.01 1007.30 1007.49 1007.52 1007.61 1007.74 1008.30 1008.61 1008.73 1009.06 1009.95 1010.80 1011.12 1011.55 1011.61 1011.90 1012.37 1012.44 1012.73 1012.79 1013.00 1012.70 1012.74 1012.54 1012.40 1012.42 1012.62 1012.80 1013.24 1013.54 1013.59
1006.32 1006.48 1006.96 1007.20 1007.68 1008.00 1007.96 1008.26 1008.76 1008.95 1009.27 1009.71 1010.63 1011.65 1011.91 1011.98 1012.13 1012.25 1012.47 1012.93 1013.15 1012.95 1013.02 1013.13 1013.23 1013.11 1012.95 1012.93 1013.18 1013.32 1013.50 1013.69 1013.66
1006.47 1006.81 1007.04 1007.40 1007.58 1007.96 1008.42 1008.85 1008.92 1009.39 1009.80 1010.50 1010.90 1011.31 1011.67 1011.85 1012.02 1012.53 1012.94 1013.06 1013.55 1013.36 1013.37 1013.41 1013.31 1013.31 1013.45 1013.51 1013.70 1013.71 1013.80 1013.87 1013.83
1007.08 1007.08 1007.32 1007.51 1007.79 1008.24 1008.66 1008.90 1009.39 1009.88 1010.46 1011.01 1011.26 1011.28 1011.35 1011.86 1012.51 1013.00 1013.46 1013.89 1014.29 1014.07 1013.97 1014.01 1013.92 1013.90 1014.02 1014.14 1014.14 1014.17 1014.20 1014.34 1014.26
1006.74 1007.02 1007.30 1007.71 1008.04 1008.51 1008.85 1009.12 1009.58 1010.19 1010.81 1011.20 1011.28 1011.46 1012.13 1012.70 1012.97 1013.28 1013.69 1014.17 1014.26 1014.31 1014.34 1014.36 1014.49 1014.61 1014.65 1014.63 1014.63 1014.75 1014.85 1014.84 1014.86
1006.25 1006.70 1007.36 1008.00 1008.27 1008.66 1009.11 1009.41 1009.77 1010.38 1011.00 1011.14 1011.40 1012.20 1012.74 1013.33 1013.32 1013.65 1014.00 1014.36 1014.65 1014.74 1015.00 1014.95 1014.89 1014.92 1014.97 1015.01 1015.02 1015.12 1015.11 1015.09 1015.12
1005.97 1006.58 1006.81 1007.24 1008.04 1008.56 1008.76 1009.11 1009.70 1010.50 1010.96 1011.54 1011.94 1012.47 1013.24 1013.49 1013.78 1013.93 1014.23 1014.54 1014.69 1014.80 1014.96 1015.17 1015.27 1015.42 1015.42 1015.42 1015.37 1015.38 1015.39 1015.50 1015.70
1005.35 1005.81 1006.15 1006.83 1007.47 1007.83 1008.43 1009.13 1009.65 1010.22 1010.81 1011.54 1011.86 1012.29 1012.99 1013.48 1013.72 1013.92 1014.29 1014.87 1015.10 1015.26 1015.44 1015.44 1015.75 1015.93 1015.91 1015.88 1015.76 1015.62 1015.65 1015.81 1015.99
1004.80 1005.52 1006.25 1006.88 1007.51 1008.07 1008.50 1009.19 1009.70 1010.35 1010.79 1011.32 1011.70 1012.41 1013.25 1013.48 1013.69 1014.16 1014.57 1014.93 1015.19 1015.32 1015.56 1015.75 1015.90 1016.03 1016.02 1015.89 1015.77 1015.79 1015.93 1016.15 1016.39
1003.82 1004.33 1004.98 1005.79 1006.67 1007.75 1008.44 1009.27 1009.93 1010.46 1010.99 1011.56 1012.08 1012.84 1013.33 1013.14 1013.66 1014.32 1014.64 1014.92 1015.12 1015.39 1015.71 1015.87 1015.96 1015.96 1016.01 1016.08 1015.99 1015.94 1016.01 1016.19 1016.54
1003.40 1003.93 1004.89 1005.88 1006.60 1007.45 1008.51 1009.37 1010.08 1010.66 1011.36 1012.13 1012.93 1013.45 1013.60 1013.53 1013.89 1014.34 1014.71 1015.06 1015.37 1015.67 1015.86 1016.05 1016.10 1016.13 1016.18 1016.22 1016.17 1015.97 1015.89 1016.13 1016.50
1003.24 1004.22 1005.31 1006.37 1007.32 1007.54 1008.45 1009.50 1010.44 1011.29 1012.16 1012.85 1013.13 1013.36 1013.62 1013.94 1014.11 1014.58 1014.91 1015.23 1015.55 1015.87 1016.01 1016.01 1016.23 1016.32 1016.45 1016.44 1016.45 1016.29 1016.18 1016.29 1016.58
1003.86 1004.72 1005.74 1006.34 1007.57 1008.35 1008.98 1009.82 1010.80 1011.96 1012.82 1013.10 1013.18 1013.58 1014.16 1014.47 1014.70 1015.02 1015.26 1015.34 1015.74 1015.94 1015.94 1016.04 1016.32 1016.43 1016.52 1016.59 1016.59 1016.52 1016.58 1016.57 1016.64
1004.10 1004.83 1005.82 1006.74 1007.77 1008.83 1009.79 1010.58 1011.47 1012.07 1012.83 1013.17 1013.43 1013.86 1014.41 1014.82 1015.08 1015.22 1015.35 1015.64 1015.80 1015.83 1015.98 1016.17 1016.25 1016.39 1016.51 1016.67 1016.86 1016.83 1016.76 1016.65 1016.62
1004.56 1005.40 1006.40 1007.13 1008.07 1009.57 1010.67 1011.03 1011.86 1011.99 1012.91 1013.39 1013.90 1014.61 1014.88 1015.17 1015.41 1015.51 1015.57 1015.78 1015.88 1015.88 1015.99 1016.12 1016.25 1016.44 1016.68 1016.83 1016.85 1016.92 1016.88 1016.72 1016.55
1005.97 1006.19 1006.72 1007.86 1008.77 1009.62 1010.58 1011.64 1012.12 1012.75 1013.36 1014.05 1014.67 1014.94 1015.40 1015.47 1015.50 1015.90 1015.93 1015.97 1016.01 1015.84 1015.85 1015.99 1016.10 1016.34 1016.57 1016.82 1016.88 1016.74 1016.64 1016.58 1016.41
1006.24 1007.42 1007.96 1008.87 1009.28 1009.99 1011.02 1011.86 1012.59 1013.36 1014.02 1014.34 1014.48 1014.68 1015.68 1015.80 1015.94 1016.09 1016.12 1016.02 1016.13 1016.12 1015.99 1015.86 1016.06 1016.22 1016.38 1016.58 1016.54 1016.48 1016.42 1016.25 1015.96
1006.22 1007.39 1008.48 1008.82 1009.93 1010.67 1011.05 1011.98 1013.05 1014.03 1014.17 1014.20 1014.39 1015.01 1015.71 1015.95 1016.06 1016.08 1016.15 1016.12 1016.23 1016.21 1016.11 1016.09 1016.26 1016.30 1016.33 1016.41 1016.34 1016.18 1015.91 1015.57 1015.31
Wind_Speed
3 6 3 5 2 6 6 4 2 2 7 9 13 10 14 13 14 12 9 5 5 4 4 5 6 5 4 5 5 4 4 2 3
5 5 3 5 5 5 7 5 5 2 7 5 6 11 14 12 13 10 11 9 8 2 3 4 5 2 1 1 2 1 1 2 3
5 2 6 6 5 5 5 5 5 7 9 8 10 10 6 8 5 6 3 4 5 3 1 3 4 4 5 5 5 4 4 2 1
6 7 1 4 5 3 6 7 7 10 12 11 9 9 7 8 7 6 5 4 3 3 3 2 3 4 6 6 5 4 3 2 1
4 4 3 5 5 6 5 9 10 11 12 10 6 6 9 10 10 8 6 6 4 5 5 4 5 5 6 6 5 5 3 4 4
6 7 6 4 4 5 6 10 10 11 10 8 7 9 11 11 10 9 8 7 6 6 6 5 5 6 7 6 6 6 6 5 6
8 9 10 6 5 6 6 8 10 11 9 8 9 11 11 10 8 8 7 6 7 7 6 6 6 6 6 6 6 6 6 6 6
7 9 10 8 9 8 8 8 9 9 9 9 9 10 9 8 8 8 8 7 6 6 6 6 6 5 5 4 5 5 4 5 5
8 7 9 9 8 8 8 9 9 8 8 8 8 9 9 7 7 8 7 6 5 6 5 5 5 6 5 5 5 10 11 8 6
12 10 10 11 10 9 8 8 10 10 9 8 9 10 8 7 7 7 7 6 5 5 5 4 5 5 4 4 3 8 9 10 5
11 9 8 7 6 5 7 6 6 8 8 8 8 8 7 6 7 6 6 6 5 4 3 4 3 3 3 2 1 3 6 7 4
13 14 13 11 10 9 8 8 7 8 8 7 7 6 5 8 8 6 5 5 5 4 3 2 2 1 3 4 3 4 3 6 3
12 12 10 11 11 8 9 7 8 9 8 7 6 5 4 6 6 6 6 5 4 2 2 2 1 3 2 3 3 9 4 4 2
11 10 11 8 9 10 9 9 9 8 7 6 6 5 5 6 5 6 5 4 3 3 2 2 3 3 3 4 5 5 5 6 3
12 12 11 11 9 7 8 10 10 8 6 6 6 6 6 6 5 3 3 5 2 2 3 4 3 1 1 2 4 3 7 7 4
11 14 12 10 10 10 8 7 8 9 7 7 6 6 6 4 4 3 3 2 1 1 1 1 1 1 1 2 2 1 3 2 2
10 11 11 12 14 12 9 7 5 9 8 6 7 6 5 3 3 4 2 1 0 1 1 1 1 0 0 1 2 2 2 2 3
6 10 12 11 13 12 11 9 9 7 7 7 6 5 3 3 4 3 3 2 1 1 1 1 2 1 2 2 3 4 6 5 4
12 10 10 11 11 13 11 10 8 6 5 6 7 7 3 2 3 1 1 1 2 5 5 6 2 7 4 3 8 8 9 11 12
13 11 11 13 11 10 12 11 8 5 5 6 6 6 3 2 2 2 2 2 3 2 2 4 0 5 7 8 9 9 11 13 12
Wind_Direction
279 254 251 343 30 67 81 84 198 208 142 173 185 157 106 117 121 233 249 230 227 220 262 294 268 258 258 256 237 208 181 152 113
259 273 40 65 77 93 99 70 47 114 162 165 132 124 136 180 203 188 209 232 255 215 319 308 320 328 333 249 140 139 164 101 99
257 306 98 99 77 80 104 95 61 77 102 94 81 106 136 190 202 177 224 256 269 151 236 359 360 22 50 59 57 63 74 100 131
237 260 162 163 138 122 83 77 83 79 84 85 86 103 121 123 127 116 120 109 106 81 77 63 50 46 45 42 39 45 59 41 28
210 209 168 165 160 130 107 100 91 89 93 99 95 96 99 91 85 78 75 73 61 56 63 53 57 47 49 43 43 43 45 42 37
170 162 133 123 112 105 110 105 102 101 99 108 112 105 91 87 86 86 79 73 71 62 67 54 53 57 58 50 43 48 53 63 56
145 151 150 156 132 115 107 106 112 115 112 117 108 92 93 94 96 95 88 82 71 62 55 65 64 61 65 62 55 53 55 61 60
159 156 151 159 140 140 135 124 114 106 113 108 103 108 112 120 114 106 99 87 79 76 55 54 72 76 65 65 66 53 58 55 63
180 174 158 145 140 145 134 132 124 121 112 115 119 114 117 110 99 90 82 78 70 66 66 57 60 59 59 50 55 60 72 73 72
174 182 165 158 160 156 143 145 141 139 138 143 129 121 115 122 120 110 95 88 82 72 63 66 61 52 51 60 47 78 88 101 102
162 154 148 149 143 135 130 140 135 138 140 125 118 117 139 138 111 112 115 106 94 81 70 69 65 48 39 37 17 108 120 105 99
169 176 175 169 157 154 148 153 140 131 109 117 125 141 166 133 125 118 110 96 91 82 82 69 56 349 5 8 321 298 205 135 120
180 177 165 147 153 148 143 141 137 130 134 137 139 142 136 109 110 114 106 97 85 74 75 77 359 345 341 2 356 5 311 137 120
174 150 151 138 151 155 149 135 134 133 139 151 136 124 108 96 103 106 103 97 82 87 62 9 49 64 41 27 11 353 92 106 95
141 138 138 142 146 132 129 133 132 137 144 135 120 106 95 82 85 96 102 96 89 65 49 21 45 84 358 19 11 6 111 111 110
145 147 144 135 132 118 110 112 135 129 136 131 122 104 102 104 109 102 70 69 9 8 22 299 278 228 277 344 23 8 0 353 357
129 127 136 132 127 128 125 122 119 125 136 124 111 119 125 127 120 76 70 89 287 182 209 226 275 297 303 229 255 279 283 284 312
104 121 125 136 131 131 122 115 107 111 116 121 126 124 120 109 81 80 109 99 26 352 291 197 120 134 159 182 257 252 225 233 270
124 126 117 124 123 122 120 115 110 109 139 149 145 105 116 95 116 129 132 120 84 60 54 67 198 163 172 230 243 259 254 253 259
120 115 125 126 126 124 122 116 119 157 154 126 101 111 138 146 157 172 190 167 164 153 357 33 233 242 259 254 257 270 267 267 275